sat.trackr.live / text

‹ back to catalog

STARLINK-5942

NORAD 56014 · 2023-042AE

PAYLOAD ACTIVE UNKNOWN

§ Identity

Operator
Country
US
Launch date
2023-03-24
Launch site
AFETR
Launch vehicle
Mass (kg)
RCS (m²)

Purposes: comms

External: N2YO · Heavens-Above · Gunter

§ Orbital elements

Epoch: 2026-09-20T01:34:42.947904Z

Period
94.27 min
Inclination
43.0051°
Eccentricity
0.0001493
Mean motion
15.27575600 rev/d
Perigee alt
482.0 km
Apogee alt
484.1 km
Semi-major
6,861.2 km
B*
3.1593e-5
RAAN
27.4275°
Arg perigee
272.4058°
Mean anomaly
87.6623°
Rev number
19,276

§ Raw data

STARLINK-59421 56014U 23042AE  26263.06577486  .00000607  00000+0  31593-4 0  99962 56014  43.0051  27.4275 0001493 272.4058  87.6623 15.27575600192768

JSON: /api/v1/satellites/56014 · /tle

For live sub-satellite position, see the globe view (requires WebGL).

§ Visibility from observer

Set your observer location to see the next 7 days of passes ≥ 10°. The values pass through the URL so the page stays shareable.

No JS? Fill the form by hand. The geolocation button needs JavaScript.